TimeCDT,TemperatureF,Dew PointF,Humidity,Sea Level PressureIn,VisibilityMPH,Wind Direction,Wind SpeedMPH,Gust SpeedMPH,PrecipitationIn,Events,Conditions,WindDirDegrees,DateUTC
12:51 AM,63.0,53.6,71,29.90,10.0,SSW,8.1,-,N/A,,Clear,210,2013-10-01 05:51:00
1:51 AM,64.0,55.4,73,29.91,10.0,SSW,12.7,-,N/A,,Clear,210,2013-10-01 06:51:00
2:51 AM,63.0,57.2,81,29.91,10.0,SSW,8.1,-,N/A,,Clear,210,2013-10-01 07:51:00
3:51 AM,62.1,57.2,84,29.91,10.0,SSW,8.1,-,N/A,,Clear,200,2013-10-01 08:51:00
4:40 AM,62.6,59.0,88,29.93,10.0,SSW,9.2,-,N/A,,Mostly Cloudy,210,2013-10-01 09:40:00
4:51 AM,62.1,59.0,90,29.92,5.0,SSW,9.2,-,N/A,,Overcast,210,2013-10-01 09:51:00
5:51 AM,62.1,60.8,96,29.93,4.0,SSW,10.4,-,N/A,,Overcast,210,2013-10-01 10:51:00
6:51 AM,63.0,61.7,96,29.94,4.0,SSW,9.2,-,N/A,,Overcast,200,2013-10-01 11:51:00
7:51 AM,64.9,61.0,87,29.95,6.0,SSW,11.5,-,N/A,,Overcast,210,2013-10-01 12:51:00
8:51 AM,66.0,61.0,84,29.96,7.0,SSW,15.0,-,N/A,,Overcast,210,2013-10-01 13:51:00
9:41 AM,66.2,60.8,83,29.97,8.0,SSW,13.8,-,N/A,,Overcast,200,2013-10-01 14:41:00
9:51 AM,66.9,61.0,81,29.95,8.0,SSW,12.7,21.9,N/A,,Overcast,200,2013-10-01 14:51:00
10:51 AM,68.0,61.0,78,29.95,10.0,SSW,11.5,19.6,N/A,,Overcast,210,2013-10-01 15:51:00
11:22 AM,69.8,60.8,73,29.96,10.0,SSW,11.5,-,N/A,,Overcast,200,2013-10-01 16:22:00
11:51 AM,70.0,61.0,73,29.94,10.0,SSW,15.0,23.0,N/A,,Overcast,210,2013-10-01 16:51:00
12:51 PM,71.1,62.1,73,29.94,10.0,SSW,16.1,-,N/A,,Overcast,210,2013-10-01 17:51:00
1:51 PM,75.0,61.0,62,29.91,10.0,SSW,20.7,27.6,N/A,,Scattered Clouds,210,2013-10-01 18:51:00
2:51 PM,75.9,61.0,60,29.90,10.0,SSW,20.7,29.9,N/A,,Scattered Clouds,210,2013-10-01 19:51:00
3:51 PM,78.1,61.0,56,29.88,10.0,SW,18.4,26.5,N/A,,Partly Cloudy,220,2013-10-01 20:51:00
4:51 PM,78.1,61.0,56,29.89,10.0,SSW,13.8,23.0,N/A,,Partly Cloudy,210,2013-10-01 21:51:00
5:51 PM,78.1,61.0,56,29.89,10.0,SW,15.0,20.7,N/A,,Clear,220,2013-10-01 22:51:00
6:51 PM,75.9,61.0,60,29.90,10.0,SW,6.9,-,N/A,,Partly Cloudy,220,2013-10-01 23:51:00
7:51 PM,73.9,61.0,64,29.92,10.0,SSW,5.8,-,N/A,,Clear,200,2013-10-02 00:51:00
8:51 PM,72.0,61.0,68,29.93,10.0,SSW,6.9,-,N/A,,Clear,210,2013-10-02 01:51:00
9:51 PM,71.1,61.0,70,29.94,10.0,SW,5.8,-,N/A,,Clear,220,2013-10-02 02:51:00
10:51 PM,70.0,62.1,76,29.94,10.0,SW,9.2,-,N/A,,Clear,220,2013-10-02 03:51:00
11:51 PM,69.1,63.0,81,29.96,9.0,SW,8.1,-,N/A,,Partly Cloudy,220,2013-10-02 04:51:00